STARLINK-34349, 64215

Orbit data source: Space-Track

STARLINK-34349, 64215 is a payload satellite owned by SpaceX/Seattle (US) in LEO that was launched on Sat, 31 May 2025 UTC via an FALCON 9 launch vehicle from the Air Force Western Test Range (AFWTR). Payload-class satellites include a variety of spacecraft equipped with specific instruments for various scientific and technological missions. These include communications satellites like Starlink; space stations such as the ISS; scientific satellites like the Hubble; Earth observation satellites from companies like Planet Labs, Umbra, and HawkEye 360; GPS; miniature CubeSats for education and research; and military/defense satellites.

Loading next visibility...
Identifier
64215, 2025-117N
Orbit
LEO
Country
Flag of USUS
Related business
Manufacturer
SpaceX/Seattle
Mission
Operational Commercial Communications
Bus & Motor
STARLINK V2MO, Unknown motor
Mass
575 kg wet, ~530 kg dry
Launch date (UTC)
2025-05-31 (1 year ago)
Launch vehicle
FALCON 9
Launch site
Air Force Western Test Range (AFWTR)
Object type
Payload
Rocket body
Debris
Shape & HBR
Box + 1 Pan, 17.7 m
Radar Cross Section
41.120 m², Large (>1 m²)

Expand to show TLE details & history
Last TLE update: 19 hours ago

TLE from 19 hours ago
0 STARLINK-34349
1 64215U 25117N   26235.59110166  .00019200  00000-0  57778-3 0  9990
2 64215  53.1583 341.9101 0001898  98.4161 261.7057 15.34408110 70113
Epoch: 2026-08-23T14:11Z
TLE epoch observation values (Epoch: 2026-08-23T14:11:11.183Z)
Latitude
Longitude
157.22854°
Altitude
463.768 km
Speed
7.636 km/s
True Right ascension
22h 47m 38s
True Declination
0° 00' 00"
Sunlit
Object was in full shadow at epoch
Visualization orbit readout
Latitude
Unknown
Longitude
Unknown
Altitude
Unknown
Speed
Unknown
Apparent Right ascension
Unknown
Apparent Declination
Unknown
Sunlit
N/A
Visualization observer readout
Local Sidereal Time
00:47:24
Azimuth
Unknown
Elevation
Unknown
Doppler factor
Unknown
Orbital elements
Apogee altitude
464.235 km
Perigee altitude
461.638 km
Semi-major axis
6,841.073 km
Eccentricity
0.00019
Inclination
53.1583°
RAAN
341.9101°
Arg. of periapsis
98.4161°
True anomaly
261.68418°
Mean anomaly
261.7057°
Eccentric anomaly
261.69494°
Mean motion
3.83581 °/min
Orbital period
93.85 mins
BSTAR
0.00057778
Loading maneuver chart data...
Computing Atmospheric mass density...
Loading historical data...
Loading historical data...
Loading historical data...
Loading historical data...
Loading historical data...
Loading historical data...
Loading historical data...

Documentation

Showing up to 5 results
|